Location: Chaumontel
(49.1247°N, 2.4324°E)
Time: 12:38:53
(UTC+00:00)

Okean O Rocket - Pass Details

Date: 03 February 2023
Orbit: 620 x 643 km, 98.1° (Epoch: 21 March)

Event Time Altitude Azimuth Distance (km) Brightness Sun altitude
Rises 19:15:30 0° 176° (S) 2,909 5.0 -24.0°
Reaches altitude 10° 19:17:43 10° 181° (S) 2,010 4.2 -24.3°
Maximum altitude 19:22:01 54° 259° (W) 774 2.3 -25.0°
Drops below altitude 10° 19:26:23 10° 338° (NNW) 2,040 4.5 -25.7°
Sets 19:28:39 0° 343° (NNW) 2,957 5.3 -26.1°
